Regional Weather Roundup
Issued by NWS

Home | Current Version | Previous Version | Graphics & Text | Print | Product List | Glossary Off
Versions: 1 2 3 4 5 6 7 8 9 10 11 12 13 14 15 16 17 18 19 20 21 22 23 24 25 26 27 28 29 30 31 32 33 34 35 36 37 38 39 40 41 42 43 44 45 46 47 48 49 50

131
ASUS43 KDMX 250601
RWRIA

WEATHER ROUNDUP FOR IOWA
NATIONAL WEATHER SERVICE DES MOINES IA
100 AM CDT SUN JUN 25 2017

NOTE: "FAIR" INDICATES FEW OR NO CLOUDS BELOW 12,000 FEET WITH NO
SIGNIFICANT WEATHER AND/OR OBSTRUCTIONS TO VISIBILITY.

* - THESE STATIONS ARE NOT NWS STATIONS...THUS NOT UNDER NWS
QUALITY CONTROL.  THEY ALSO DO NOT REPORT WEATHER SUCH
AS PRECIPITATION OR FOG.

IAZ001>003-012>014-020>022-031>034-043>046-250700-
   NORTHWEST IOWA

CITY           SKY/WX    TMP DP  RH WIND       PRES   REMARKS
CARROLL *      CLEAR     50  43  76 W7        30.20R
CHEROKEE *     CLEAR     51  42  72 NW5       30.21R
DENISON *      CLEAR     52  41  66 CALM      30.23R
LE MARS *      CLEAR     54  41  62 N6        30.23R
ORANGE CITY *  CLEAR     52  43  71 NW6       30.22S
SHELDON *      CLEAR     50  43  76 NW7       30.19S
SIOUX CITY     CLEAR     53  42  66 W9        30.24R
6HR MIN TEMP:  52; 6HR MAX TEMP:  75;

SPENCER        CLEAR     47  43  86 NW8       30.19R
6HR MIN TEMP:  47; 6HR MAX TEMP:  68;

STORM LAKE *   CLEAR     54  41  62 NW7       30.21R
$$

IAZ055>058-069>071-079>083-090>094-250700-
   SOUTHWEST IOWA

CITY           SKY/WX    TMP DP  RH WIND       PRES   REMARKS
ATLANTIC *     CLEAR     52  48  87 N3        30.20S
AUDUBON *      CLEAR     52  45  76 CALM      30.21S
CLARINDA *     CLEAR     55  52  88 CALM      30.22R
COUNCIL BLFS * CLEAR     59  43  55 N5        30.22R
CRESTON *      CLEAR     59  45  58 N5        30.21R
HARLAN  *      CLEAR     50  43  76 N5        30.24R
LAMONI         CLEAR     60  45  57 N8        30.18R
6HR MIN TEMP:  60; 6HR MAX TEMP:  75;

RED OAK *      PTCLDY    55  50  82 CALM      30.21R
SHENANDOAH *   CLEAR     54  52  94 CALM      30.21R
$$

IAZ047>049-059>061-072>074-084-250700-
   CENTRAL IOWA

CITY           SKY/WX    TMP DP  RH WIND       PRES   REMARKS
AMES           CLEAR     53  46  77 NW6       30.17R
6HR MIN TEMP:  53; 6HR MAX TEMP:  75;

ANKENY *       CLEAR     54  48  82 CALM      30.18R
BOONE *        PTCLDY    57  43  58 NW7       30.17R
CHARITON *     CLEAR     57  46  67 NW3       30.17S
DES MOINES     PTCLDY    60  46  59 NW3       30.17R
6HR MIN TEMP:  59; 6HR MAX TEMP:  78;

GRINNELL*      CLEAR     56  45  65 W5        30.17R
KNOXVILLE *    CLEAR     57  46  67 NW6       30.15S
MARSHALLTOWN   CLEAR     52  45  77 W5        30.15R
6HR MIN TEMP:  52; 6HR MAX TEMP:  72;

NEWTON *       CLEAR     55  45  67 NW6       30.16S
PELLA *        CLEAR     54  47  76 NW5       30.17R
PERRY *          N/A     51  47  86 W6        30.18S
$$

IAZ004>006-015-016-023>025-035-036-250700-
   NORTH CENTRAL IOWA

CITY           SKY/WX    TMP DP  RH WIND       PRES   REMARKS
ALGONA *       PTCLDY    54  43  66 NW7       30.17R
CLARION *        N/A     50  45  81 NW6       30.16S
ESTHERVILLE    CLEAR     48  46  93 NW8       30.17R
6HR MIN TEMP:  48; 6HR MAX TEMP:  65;

FORT DODGE *   CLEAR     50  39  66 S3        30.19R
MASON CITY     PTCLDY    50  42  74 W9        30.15S
6HR MIN TEMP:  49; 6HR MAX TEMP:  67;

FOREST CITY *    N/A     52  36  54 W6        30.15R
WEBSTER CITY * CLEAR     52  45  76 W8        30.15R
IOWA FALLS *     N/A     51  46  84 W6        30.16S
$$

IAZ007>011-017>019-026>030-037>042-050>054-066-250700-
   NORTHEAST IOWA

CITY           SKY/WX    TMP DP  RH WIND       PRES   REMARKS
CEDAR RAPIDS   CLEAR     50  47  89 W6        30.12S
6HR MIN TEMP:  50; 6HR MAX TEMP:  72;

CHARLES CITY * PTCLDY    50  48  93 W6        30.13S
CLINTON *      CLEAR     53  51  93 W7        30.11S
DECORAH *      CLEAR     52  46  82 W3        30.09S
DUBUQUE        CLEAR     50  49  96 W3        30.10S
6HR MIN TEMP:  50; 6HR MAX TEMP:  60;

MONTICELLO *   CLEAR     52  52 100 CALM      30.11S
OELWEIN *      CLEAR     52  48  87 W6        30.12S
WATERLOO       CLEAR     52  45  77 W6        30.12R
6HR MIN TEMP:  51; 6HR MAX TEMP:  71;

$$

IAZ064-065-067-068-078-250700-
   EAST CENTRAL IOWA

CITY           SKY/WX    TMP DP  RH WIND       PRES   REMARKS
DAVENPORT      CLEAR     57  50  77 CALM      30.12R
6HR MIN TEMP:  54; 6HR MAX TEMP:  71; 6HR PCP: TRACE;

IOWA CITY      CLEAR     56  47  71 CALM      30.14R
6HR MIN TEMP:  55; 6HR MAX TEMP:  75; 6HR PCP: TRACE;

MT. PLEASANT * CLEAR     60  43  52 NW3       30.14S
MUSCATINE *    CLEAR     57  48  72 CALM      30.13S
QUAD CITIES    CLEAR     56  51  84 CALM      30.11S
6HR MIN TEMP:  56; 6HR MAX TEMP:  73; 6HR PCP:  0.09;

$$

IAZ062-063-075>077-085>089-095>099-250700-
   SOUTHEAST IOWA

CITY           SKY/WX    TMP DP  RH WIND       PRES   REMARKS
BURLINGTON     CLEAR     61  47  59 NW6       30.13R
6HR MIN TEMP:  60; 6HR MAX TEMP:  74;

FAIRFIELD *    CLEAR     59  45  58 W6        30.14S
FORT MADISON * CLEAR     61  48  63 NW5       30.14S
KEOKUK *       CLEAR     59  48  67 NW3       30.13S
OSKALOOSA *      N/A     54  45  70 NW6       30.16R
OTTUMWA        CLEAR     53  44  71 NW6       30.15S
6HR MIN TEMP:  53; 6HR MAX TEMP:  74;

$$

ABBREVIATIONS USED IN REMARKS
   TC - TEMPERATURES IN CELSIUS
  WCI - WIND CHILL INDEX
   HX - HEAT INDEX
  VSB - VISIBILITY
$$





USA.gov is the U.S. government's official web portal to all federal, state and local government web resources and services.